QAC322 EBLG-OTHH

Flight info

Callsign QAC322
Flight time N/A
Altitude 19000
Route LNO2R LNO L607 ARCKY/N0447F230 L607 ROPUV/N0482F330 L607 ULNOK DCT VIBOM DCT NOMBO DCT RIDAR DCT RADIZ DCT LUMUS DCT GORPA DCT DEVUL/N0477F350 DCT REMSO DCT MEDUX UM867 KOGAT DCT ERANA UL737 TSL UN130 MES UL609 RDS DCT VANZA DCT LAKTO L560 SILKA M872 BDB Y214 KODIS/N0490F370 Y214 RAPMA/N0514F290 Y214 ASPUS Y432 LADBO T142 LAEEB LAEEB1L
Aircraft B77L/H-SDE1E2E3FGHIJ2J3J4J5M1RWXY/LB1D1

Departure

Time 2026-04-29 06:43
Airport Liège Airport (EBLG)

Arrival

Time N/A
Airport Hamad International Airport (OTHH)
Time Latitude Longitude Altitude Speed Heading
2026-04-29 06:31 50.63503 5.44541 635 ft 0 kts 135°
2026-04-29 06:35 50.63511 5.44527 635 ft 3 kts 142°
2026-04-29 06:35 50.63528 5.44508 635 ft 3 kts 152°
2026-04-29 06:35 50.63552 5.44490 634 ft 3 kts 156°
2026-04-29 06:36 50.63555 5.44488 634 ft 1 kts 156°
2026-04-29 06:38 50.63555 5.44489 621 ft 2 kts 156°
2026-04-29 06:38 50.63509 5.44449 636 ft 10 kts 235°
2026-04-29 06:38 50.63472 5.44361 641 ft 10 kts 232°
2026-04-29 06:38 50.63430 5.44281 643 ft 10 kts 226°
2026-04-29 06:39 50.63384 5.44206 648 ft 10 kts 224°
2026-04-29 06:39 50.63336 5.44133 648 ft 10 kts 224°
2026-04-29 06:39 50.63288 5.44059 651 ft 10 kts 224°
2026-04-29 06:39 50.63238 5.43982 647 ft 10 kts 225°
2026-04-29 06:40 50.63201 5.43893 650 ft 10 kts 263°
2026-04-29 06:40 50.63251 5.43841 645 ft 10 kts
2026-04-29 06:40 50.63323 5.43853 648 ft 10 kts 358°
2026-04-29 06:40 50.63364 5.43797 650 ft 7 kts 278°
2026-04-29 06:41 50.63330 5.43667 653 ft 23 kts 248°
2026-04-29 06:41 50.63280 5.43408 647 ft 27 kts 255°
2026-04-29 06:41 50.63205 5.43136 647 ft 27 kts 229°
2026-04-29 06:41 50.63057 5.42962 652 ft 27 kts 188°
2026-04-29 06:42 50.62942 5.43130 664 ft 19 kts 76°
2026-04-29 06:42 50.63015 5.43259 661 ft 18 kts 45°
2026-04-29 06:42 50.63251 5.43631 655 ft 82 kts 45°
2026-04-29 06:42 50.63813 5.44523 629 ft 145 kts 45°
2026-04-29 06:43 50.64572 5.45841 716 ft 179 kts 47°
2026-04-29 06:43 50.65501 5.47250 1337 ft 180 kts 46°
2026-04-29 06:43 50.66416 5.48606 2136 ft 177 kts 50°
2026-04-29 06:43 50.67311 5.49937 2846 ft 178 kts 48°
2026-04-29 06:44 50.68203 5.51246 3453 ft 182 kts 47°
2026-04-29 06:44 50.69118 5.52685 3909 ft 196 kts 50°
2026-04-29 06:44 50.70095 5.54335 4313 ft 212 kts 50°
2026-04-29 06:44 50.71129 5.56055 4947 ft 218 kts 50°
2026-04-29 06:45 50.72344 5.57519 5466 ft 230 kts 20°
2026-04-29 06:45 50.73898 5.57539 6101 ft 241 kts 343°
2026-04-29 06:45 50.75333 5.56022 6837 ft 251 kts 310°
2026-04-29 06:45 50.76084 5.53512 7490 ft 256 kts 287°